Orlando, FL

1:34 PM EST on February 11, 2016 (GMT -0500)
Orlando International

Weather History for KMCO - June, 2013

Change the Weather History Date:

Saturday, June 1, 2013

  Actual Average Record
Temperature  
Mean Temperature 81 °F 80 °F  
Max Temperature 89 °F 90 °F 100 °F (1945)
Min Temperature 72 °F 70 °F 53 °F (1984)
Degree Days  
Heating Degree Days 0 0  
Month to date heating degree days 0 0  
Since 1 June heating degree days 0 0  
Since 1 July heating degree days 461 571  
Cooling Degree Days 16 15  
Month to date cooling degree days 16 15  
Year to date cooling degree days 888 816  
Since 1 June cooling degree days 16 15  
Growing Degree Days 30 (Base 50)    
Moisture  
Dew Point 72 °F    
Average Humidity 77    
Maximum Humidity 94    
Minimum Humidity 59    
Precipitation  
Precipitation T in 0.22 in 3.20 in (1907)
Month to date precipitation T 0.22  
Year to date precipitation 10.87 14.85  
Sea Level Pressure  
Sea Level Pressure 30.03 in    
Wind  
Wind Speed 10 mph (East)    
Max Wind Speed 22 mph    
Max Gust Speed 25 mph    
Visibility 10 miles    
Events Rain    
T = Trace of Precipitation, MM = Missing Value Source: NWS Daily Summary

Daily Weather History Graph

Daily Weather History Graph

Search for Another Location

Airport or City:

Trip Planner

Search our weather history database for the weather conditions in past years. The results will help you decide how hot, cold, wet, or windy it might be!

Date:

Astronomy

Jun. 01, 2013 Rise Set
Actual Time 6:28 AM EDT 8:18 PM EDT
Civil Twilight 6:01 AM EDT 8:44 PM EDT
Nautical Twilight 5:29 AM EDT 9:16 PM EDT
Astronomical Twilight 4:55 AM EDT 9:50 PM EDT
Moon 1:52 AM EDT (6/1) 2:14 PM EDT (6/1)
Length of Visible Light 14h 43m
Length of Day
13h 50m
Last Quarter, 41% of the Moon is Illuminated
Jun 1
Last Quarter
Jun 8
New
Jun 16
First Quarter
Jun 23
Full
Jun 30
Last Quarter

Hourly Weather History & Observations

Time (EDT) Temp. Heat Index Dew Point Humidity Pressure Visibility Wind Dir Wind Speed Gust Speed Precip Events Conditions
12:53 AM 73.9 °F - 71.1 °F 91% 30.08 in 10.0 mi East 5.8 mph - N/A   Scattered Clouds
1:53 AM 73.0 °F - 70.0 °F 90% 30.06 in 10.0 mi East 4.6 mph - N/A   Scattered Clouds
2:53 AM 73.0 °F - 71.1 °F 93% 30.04 in 10.0 mi ENE 5.8 mph - N/A   Scattered Clouds
3:53 AM 73.0 °F - 71.1 °F 93% 30.02 in 10.0 mi ENE 5.8 mph - N/A   Scattered Clouds
4:53 AM 73.0 °F - 70.0 °F 90% 30.02 in 10.0 mi East 4.6 mph - N/A   Scattered Clouds
5:53 AM 73.0 °F - 70.0 °F 90% 30.04 in 10.0 mi East 4.6 mph - N/A   Scattered Clouds
6:53 AM 73.0 °F - 71.1 °F 93% 30.06 in 10.0 mi ENE 4.6 mph - N/A   Scattered Clouds
7:53 AM 75.9 °F - 72.0 °F 87% 30.06 in 10.0 mi ENE 6.9 mph - N/A   Scattered Clouds
8:53 AM 79.0 °F - 72.0 °F 79% 30.07 in 10.0 mi ESE 11.5 mph - N/A   Scattered Clouds
9:53 AM 82.9 °F 88.0 °F 72.0 °F 69% 30.06 in 10.0 mi East 13.8 mph - N/A   Scattered Clouds
10:53 AM 84.0 °F 89.0 °F 71.1 °F 65% 30.05 in 10.0 mi East 15.0 mph - N/A   Mostly Cloudy
11:53 AM 84.9 °F 90.1 °F 71.1 °F 63% 30.05 in 10.0 mi East 12.7 mph 17.3 mph N/A   Mostly Cloudy
12:53 PM 84.9 °F 90.1 °F 71.1 °F 63% 30.04 in 10.0 mi East 13.8 mph - N/A   Mostly Cloudy
1:53 PM 88.0 °F 94.7 °F 72.0 °F 59% 30.03 in 10.0 mi East 13.8 mph 19.6 mph N/A   Partly Cloudy
2:53 PM 87.1 °F 93.6 °F 72.0 °F 61% 30.00 in 10.0 mi ESE 9.2 mph 17.3 mph N/A   Partly Cloudy
3:53 PM 86.0 °F 92.2 °F 72.0 °F 63% 29.99 in 10.0 mi East 15.0 mph - N/A   Scattered Clouds
4:53 PM 86.0 °F 93.0 °F 73.0 °F 65% 29.98 in 10.0 mi East 12.7 mph 23.0 mph N/A   Partly Cloudy
5:53 PM 84.9 °F 90.7 °F 72.0 °F 65% 29.99 in 10.0 mi East 15.0 mph 25.3 mph N/A   Partly Cloudy
6:53 PM 82.0 °F 87.4 °F 73.0 °F 74% 30.00 in 10.0 mi ESE 17.3 mph - N/A   Mostly Cloudy
7:47 PM 78.8 °F - 73.4 °F 83% 30.02 in 10.0 mi East 16.1 mph - N/A   Overcast
7:53 PM 79.0 °F - 73.0 °F 82% 30.01 in 10.0 mi East 18.4 mph 24.2 mph N/A   Overcast
8:03 PM 78.8 °F - 73.4 °F 83% 30.02 in 10.0 mi East 16.1 mph - 0.00 in Rain Light Rain
8:53 PM 77.0 °F - 72.0 °F 84% 30.03 in 10.0 mi ESE 11.5 mph - 0.00 in   Overcast
9:53 PM 77.0 °F - 73.0 °F 88% 30.04 in 10.0 mi East 10.4 mph - N/A   Overcast
10:53 PM 77.0 °F - 73.9 °F 90% 30.04 in 10.0 mi East 8.1 mph - N/A   Mostly Cloudy
11:53 PM 75.9 °F - 73.9 °F 94% 30.04 in 10.0 mi East 8.1 mph - N/A   Scattered Clouds